Location: Clanezzo
(45.7500°N, 9.6000°E)
Time: 14:08:31
(UTC+00:00)

Sich 1 - Pass Details

Date: 12 May 2021
Orbit: 595 x 624 km, 82.5° (Epoch: 19 June)

Event Time Altitude Azimuth Distance (km) Brightness Sun altitude
Rises 19:52:46 0° 345° (NNW) 2,870 7.5 -10.9°
Reaches altitude 10° 19:55:03 10° 339° (NNW) 1,967 6.7 -11.2°
Maximum altitude 19:59:12 46° 267° (W) 828 4.1 -11.7°
Drops below altitude 10° 20:03:22 10° 194° (SSW) 1,968 5.4 -12.2°
Enters shadow 20:05:07 - 189° (S) 2,664 6.0 -12.5°
